ZSTSG FAWB-FAVG

Flight info

Callsign ZSTSG
Flight time N/A
Altitude 11000
Route STV DCT TGV
Aircraft C208/L-SDFGR/C

Departure

Time 2026-04-28 07:40
Airport Wonderboom Airport (FAWB)

Arrival

Time N/A
Airport Virginia Airport (FAVG)
Time Latitude Longitude Altitude Speed Heading
2026-04-28 07:30 -25.65591 28.21432 4100 ft 0 kts 315°
2026-04-28 07:33 -25.65591 28.21430 4100 ft 2 kts 277°
2026-04-28 07:33 -25.65609 28.21449 4100 ft 9 kts 64°
2026-04-28 07:33 -25.65547 28.21481 4100 ft 13 kts 18°
2026-04-28 07:34 -25.65473 28.21560 4100 ft 18 kts 67°
2026-04-28 07:34 -25.65438 28.21702 4100 ft 18 kts 83°
2026-04-28 07:34 -25.65441 28.21825 4101 ft 14 kts 91°
2026-04-28 07:34 -25.65445 28.21922 4101 ft 11 kts 92°
2026-04-28 07:35 -25.65448 28.22004 4100 ft 10 kts 92°
2026-04-28 07:35 -25.65451 28.22093 4100 ft 15 kts 91°
2026-04-28 07:35 -25.65457 28.22232 4100 ft 21 kts 94°
2026-04-28 07:35 -25.65465 28.22410 4101 ft 25 kts 94°
2026-04-28 07:36 -25.65474 28.22610 4100 ft 23 kts 92°
2026-04-28 07:36 -25.65481 28.22750 4100 ft 14 kts 92°
2026-04-28 07:36 -25.65483 28.22812 4100 ft 10 kts 93°
2026-04-28 07:36 -25.65488 28.22896 4100 ft 8 kts 92°
2026-04-28 07:37 -25.65490 28.22958 4100 ft 8 kts 93°
2026-04-28 07:37 -25.65492 28.23022 4100 ft 8 kts 92°
2026-04-28 07:37 -25.65485 28.23083 4100 ft 8 kts 45°
2026-04-28 07:37 -25.65454 28.23091 4101 ft 0 kts
2026-04-28 07:38 -25.65437 28.23092 4100 ft 8 kts
2026-04-28 07:39 -25.65394 28.23090 4100 ft 8 kts 338°
2026-04-28 07:39 -25.65376 28.22945 4100 ft 33 kts 274°
2026-04-28 07:39 -25.65365 28.22698 4099 ft 64 kts 272°
2026-04-28 07:39 -25.65338 28.22071 4147 ft 94 kts 270°
2026-04-28 07:40 -25.65307 28.21284 4324 ft 106 kts 269°
2026-04-28 07:40 -25.65315 28.20436 4531 ft 115 kts 265°
2026-04-28 07:40 -25.65352 28.19527 4735 ft 121 kts 275°
2026-04-28 07:40 -25.64858 28.18777 4944 ft 131 kts 332°
2026-04-28 07:41 -25.63947 28.18828 5150 ft 143 kts 26°
2026-04-28 07:41 -25.63277 28.19680 5373 ft 147 kts 56°
2026-04-28 07:41 -25.62528 28.20402 5598 ft 145 kts 30°
2026-04-28 07:41 -25.62010 28.21325 5794 ft 148 kts 84°
2026-04-28 07:42 -25.62336 28.22345 5985 ft 138 kts 141°
2026-04-28 07:42 -25.63033 28.23038 6210 ft 134 kts 144°
2026-04-28 07:42 -25.63825 28.23464 6426 ft 124 kts 174°
2026-04-28 07:42 -25.64661 28.23747 6647 ft 126 kts 172°
2026-04-28 07:43 -25.65488 28.24040 6869 ft 125 kts 173°
2026-04-28 07:43 -25.66301 28.24333 7069 ft 122 kts 172°
2026-04-28 07:43 -25.67100 28.24623 7282 ft 123 kts 173°
2026-04-28 07:43 -25.67906 28.24921 7490 ft 121 kts 173°
2026-04-28 07:44 -25.68711 28.25219 7650 ft 124 kts 172°
2026-04-28 07:44 -25.69541 28.25522 7800 ft 127 kts 173°
2026-04-28 07:44 -25.70389 28.25829 7956 ft 129 kts 172°
2026-04-28 07:44 -25.71256 28.26140 8119 ft 132 kts 172°
2026-04-28 07:45 -25.72135 28.26461 8268 ft 133 kts 172°
2026-04-28 07:45 -25.73010 28.26791 8417 ft 133 kts 172°
2026-04-28 07:45 -25.73890 28.27131 8571 ft 135 kts 172°
2026-04-28 07:45 -25.74784 28.27480 8806 ft 138 kts 172°
2026-04-28 07:46 -25.75697 28.27833 8977 ft 140 kts 172°
2026-04-28 07:46 -25.76620 28.28196 9119 ft 140 kts 172°
2026-04-28 07:46 -25.77528 28.28561 9267 ft 137 kts 172°
2026-04-28 07:46 -25.78421 28.28926 9414 ft 137 kts 172°
2026-04-28 07:47 -25.79221 28.29588 9556 ft 155 kts 136°
2026-04-28 07:47 -25.79842 28.30561 9712 ft 155 kts 135°
2026-04-28 07:47 -25.80467 28.31524 9863 ft 156 kts 135°
2026-04-28 07:47 -25.81104 28.32507 10015 ft 157 kts 135°
2026-04-28 07:48 -25.81742 28.33496 10166 ft 159 kts 135°
2026-04-28 07:48 -25.82499 28.34301 10282 ft 141 kts 173°
2026-04-28 07:48 -25.83351 28.34255 10420 ft 116 kts 211°
2026-04-28 07:48 -25.84173 28.34103 10567 ft 125 kts 193°
2026-04-28 07:49 -25.85060 28.34253 10715 ft 137 kts 172°
2026-04-28 07:49 -25.85939 28.34735 10857 ft 142 kts 165°
2026-04-28 07:49 -25.86815 28.35255 10985 ft 144 kts 164°
2026-04-28 07:49 -25.87731 28.35806 10997 ft 154 kts 163°
2026-04-28 07:50 -25.88692 28.36401 11006 ft 161 kts 162°
2026-04-28 07:50 -25.89654 28.36996 10985 ft 154 kts 162°
2026-04-28 07:50 -25.90552 28.37555 10973 ft 142 kts 163°
2026-04-28 07:50 -25.91387 28.38072 10973 ft 134 kts 164°
2026-04-28 07:51 -25.92188 28.38565 10972 ft 129 kts 165°
2026-04-28 07:51 -25.92956 28.39039 10973 ft 124 kts 166°
2026-04-28 07:51 -25.93697 28.39496 10972 ft 120 kts 166°
2026-04-28 07:51 -25.94418 28.39941 10970 ft 117 kts 167°
2026-04-28 07:52 -25.95130 28.40381 10978 ft 118 kts 166°
2026-04-28 07:52 -25.95872 28.40837 10988 ft 127 kts 165°
2026-04-28 07:52 -25.96681 28.41333 10993 ft 138 kts 164°
2026-04-28 07:52 -25.97548 28.41866 10997 ft 148 kts 163°
2026-04-28 07:53 -25.98483 28.42442 10993 ft 158 kts 162°
2026-04-28 07:53 -25.99469 28.43054 10988 ft 166 kts 161°
2026-04-28 07:53 -26.00490 28.43688 10984 ft 170 kts 161°
2026-04-28 07:53 -26.01529 28.44333 10980 ft 172 kts 161°
2026-04-28 07:54 -26.02576 28.44981 10994 ft 177 kts 161°
2026-04-28 07:54 -26.03671 28.45655 10993 ft 182 kts 161°
2026-04-28 07:54 -26.04797 28.46351 10991 ft 187 kts 160°
2026-04-28 07:54 -26.05943 28.47060 10992 ft 189 kts 160°
2026-04-28 07:55 -26.07098 28.47777 10992 ft 190 kts 160°
2026-04-28 07:55 -26.08236 28.48483 10993 ft 190 kts 160°
2026-04-28 07:55 -26.09388 28.49196 10996 ft 190 kts 160°
2026-04-28 07:55 -26.10547 28.49913 10997 ft 190 kts 160°
2026-04-28 07:56 -26.11704 28.50630 10995 ft 190 kts 160°
2026-04-28 07:56 -26.12859 28.51347 10997 ft 190 kts 160°
2026-04-28 07:56 -26.14013 28.52063 10997 ft 190 kts 160°
2026-04-28 07:56 -26.15169 28.52779 10998 ft 190 kts 160°
2026-04-28 07:57 -26.16324 28.53496 11000 ft 190 kts 160°
2026-04-28 07:57 -26.17470 28.54207 10999 ft 190 kts 160°
2026-04-28 07:57 -26.18630 28.54925 10999 ft 191 kts 160°
2026-04-28 07:57 -26.19792 28.55645 11000 ft 192 kts 160°
2026-04-28 07:58 -26.20959 28.56370 10998 ft 192 kts 160°
2026-04-28 07:58 -26.22127 28.57096 10998 ft 192 kts 160°
2026-04-28 07:58 -26.23294 28.57821 10997 ft 192 kts 160°
2026-04-28 07:58 -26.24462 28.58547 10996 ft 192 kts 160°
2026-04-28 07:59 -26.25629 28.59271 10995 ft 192 kts 160°
2026-04-28 07:59 -26.26800 28.59999 10995 ft 192 kts 160°
2026-04-28 07:59 -26.27952 28.60715 10991 ft 192 kts 160°
2026-04-28 07:59 -26.29119 28.61441 10991 ft 192 kts 160°
2026-04-28 08:00 -26.30286 28.62167 10990 ft 192 kts 160°
2026-04-28 08:00 -26.31453 28.62895 10986 ft 192 kts 160°
2026-04-28 08:00 -26.32621 28.63622 10989 ft 193 kts 160°
2026-04-28 08:00 -26.33795 28.64351 10987 ft 193 kts 160°
2026-04-28 08:01 -26.34967 28.65078 10987 ft 192 kts 160°
2026-04-28 08:01 -26.36135 28.65806 10981 ft 192 kts 160°
2026-04-28 08:01 -26.37302 28.66534 10974 ft 192 kts 159°
2026-04-28 08:01 -26.38467 28.67260 10973 ft 192 kts 160°
2026-04-28 08:02 -26.39631 28.67984 10973 ft 192 kts 159°
2026-04-28 08:02 -26.40796 28.68710 10973 ft 191 kts 159°
2026-04-28 08:02 -26.41951 28.69430 10972 ft 192 kts 159°
2026-04-28 08:02 -26.43117 28.70157 10987 ft 192 kts 160°
2026-04-28 08:03 -26.44290 28.70888 10976 ft 193 kts 160°
2026-04-28 08:03 -26.45468 28.71622 10974 ft 193 kts 160°
2026-04-28 08:03 -26.46643 28.72356 10975 ft 193 kts 160°
2026-04-28 08:03 -26.47815 28.73089 10973 ft 193 kts 160°
2026-04-28 08:04 -26.48976 28.73813 10973 ft 194 kts 160°
2026-04-28 08:04 -26.50154 28.74547 10979 ft 194 kts 160°
2026-04-28 08:04 -26.51329 28.75281 10976 ft 193 kts 160°
2026-04-28 08:04 -26.52503 28.76016 10973 ft 193 kts 160°
2026-04-28 08:05 -26.53673 28.76747 10974 ft 192 kts 160°
2026-04-28 08:05 -26.54841 28.77476 10973 ft 192 kts 160°
2026-04-28 08:05 -26.56008 28.78205 10967 ft 193 kts 160°
2026-04-28 08:05 -26.57177 28.78936 10962 ft 193 kts 160°
2026-04-28 08:06 -26.58348 28.79669 10964 ft 193 kts 159°
2026-04-28 08:06 -26.59518 28.80401 10967 ft 193 kts 159°
2026-04-28 08:06 -26.60691 28.81136 10962 ft 193 kts 159°
2026-04-28 08:06 -26.61853 28.81864 10964 ft 193 kts 159°
2026-04-28 08:07 -26.63023 28.82597 10955 ft 193 kts 160°
2026-04-28 08:07 -26.64191 28.83328 10954 ft 192 kts 160°
2026-04-28 08:07 -26.65356 28.84057 10956 ft 192 kts 160°
2026-04-28 08:07 -26.66521 28.84785 10971 ft 191 kts 160°
2026-04-28 08:08 -26.67683 28.85518 10965 ft 192 kts 161°
2026-04-28 08:08 -26.68851 28.86245 10966 ft 192 kts 161°
2026-04-28 08:08 -26.69988 28.87051 10964 ft 199 kts 148°
2026-04-28 08:08 -26.71001 28.88113 10963 ft 199 kts 146°
2026-04-28 08:09 -26.72019 28.89159 10966 ft 199 kts 147°
2026-04-28 08:09 -26.73046 28.90197 10956 ft 199 kts 147°
2026-04-28 08:09 -26.74073 28.91238 10955 ft 199 kts 147°
2026-04-28 08:09 -26.75098 28.92283 10955 ft 199 kts 147°
2026-04-28 08:10 -26.76123 28.93327 10954 ft 199 kts 147°
2026-04-28 08:10 -26.77137 28.94360 10955 ft 200 kts 147°
2026-04-28 08:10 -26.78167 28.95409 10956 ft 200 kts 147°
2026-04-28 08:10 -26.79196 28.96459 10952 ft 200 kts 146°
2026-04-28 08:11 -26.80225 28.97509 10953 ft 200 kts 146°
2026-04-28 08:11 -26.81256 28.98558 10951 ft 200 kts 147°
2026-04-28 08:11 -26.82284 28.99603 10953 ft 200 kts 146°
2026-04-28 08:11 -26.83312 29.00652 10952 ft 200 kts 146°
2026-04-28 08:12 -26.84342 29.01704 10944 ft 200 kts 146°
2026-04-28 08:12 -26.85371 29.02754 10944 ft 200 kts 146°
2026-04-28 08:12 -26.86402 29.03806 10944 ft 200 kts 146°
2026-04-28 08:12 -26.87433 29.04858 10944 ft 200 kts 146°
2026-04-28 08:13 -26.88463 29.05910 10954 ft 201 kts 146°
2026-04-28 08:13 -26.89498 29.06972 10950 ft 201 kts 147°
2026-04-28 08:13 -26.90422 29.07912 10950 ft 200 kts 147°
2026-04-28 08:15 -26.91050 29.08554 10948 ft 194 kts 147°
2026-04-28 08:15 -26.92043 29.09568 10938 ft 192 kts 147°
2026-04-28 08:15 -26.93024 29.10582 10936 ft 190 kts 130°
2026-04-28 08:15 -26.93803 29.11712 10931 ft 179 kts 152°
2026-04-28 08:16 -26.94593 29.12285 10950 ft 173 kts 158°
2026-04-28 08:16 -26.94841 29.12482 10948 ft 175 kts 155°
2026-04-28 08:16 -26.95795 29.13388 10942 ft 183 kts 147°
2026-04-28 08:16 -26.96731 29.14367 10946 ft 186 kts 147°
2026-04-28 08:17 -26.97701 29.15358 10947 ft 191 kts 147°
2026-04-28 08:17 -26.98689 29.16368 10949 ft 193 kts 147°
2026-04-28 08:17 -26.99690 29.17393 10944 ft 196 kts 147°
2026-04-28 08:17 -27.00685 29.18413 10945 ft 197 kts 147°
2026-04-28 08:18 -27.01699 29.19452 10945 ft 198 kts 147°
2026-04-28 08:18 -27.02714 29.20495 10947 ft 198 kts 147°
2026-04-28 08:18 -27.03735 29.21540 10949 ft 199 kts 147°
2026-04-28 08:18 -27.04761 29.22593 10945 ft 200 kts 147°
2026-04-28 08:19 -27.05788 29.23645 10946 ft 200 kts 147°
2026-04-28 08:19 -27.06823 29.24705 10948 ft 201 kts 147°
2026-04-28 08:19 -27.07866 29.25764 10937 ft 202 kts 147°
2026-04-28 08:19 -27.08906 29.26832 10940 ft 203 kts 146°
2026-04-28 08:20 -27.09936 29.27892 10940 ft 203 kts 146°
2026-04-28 08:20 -27.10982 29.28965 10941 ft 204 kts 147°
2026-04-28 08:20 -27.12029 29.30042 10938 ft 204 kts 147°
2026-04-28 08:20 -27.13070 29.31113 10938 ft 203 kts 147°
2026-04-28 08:21 -27.14109 29.32181 10935 ft 202 kts 147°
2026-04-28 08:21 -27.15146 29.33246 10937 ft 203 kts 147°
2026-04-28 08:21 -27.16193 29.34321 10938 ft 203 kts 147°
2026-04-28 08:21 -27.17232 29.35391 10941 ft 203 kts 147°
2026-04-28 08:22 -27.18275 29.36465 10938 ft 203 kts 147°
2026-04-28 08:22 -27.19304 29.37524 10934 ft 204 kts 147°
2026-04-28 08:22 -27.20352 29.38600 10935 ft 205 kts 147°
2026-04-28 08:22 -27.21403 29.39682 10935 ft 204 kts 147°
2026-04-28 08:23 -27.22452 29.40764 10935 ft 204 kts 147°
2026-04-28 08:23 -27.23496 29.41842 10934 ft 204 kts 147°
2026-04-28 08:23 -27.24551 29.42927 10933 ft 205 kts 147°
2026-04-28 08:23 -27.25601 29.44010 10937 ft 205 kts 147°
2026-04-28 08:24 -27.26643 29.45085 10930 ft 206 kts 147°
2026-04-28 08:24 -27.27700 29.46177 10928 ft 206 kts 147°
2026-04-28 08:24 -27.28759 29.47268 10931 ft 207 kts 147°
2026-04-28 08:24 -27.29826 29.48367 10922 ft 208 kts 147°
2026-04-28 08:25 -27.30891 29.49467 10926 ft 208 kts 147°
2026-04-28 08:25 -27.31962 29.50575 10922 ft 209 kts 147°
2026-04-28 08:25 -27.33033 29.51681 10924 ft 209 kts 147°
2026-04-28 08:26 -27.35172 29.53887 10919 ft 209 kts 147°
2026-04-28 08:26 -27.36227 29.54988 10907 ft 208 kts 147°
2026-04-28 08:26 -27.37290 29.56084 10902 ft 207 kts 147°
2026-04-28 08:26 -27.38355 29.57181 10906 ft 207 kts 147°
2026-04-28 08:27 -27.39419 29.58282 10901 ft 208 kts 147°
2026-04-28 08:27 -27.40484 29.59384 10906 ft 208 kts 147°
2026-04-28 08:27 -27.41190 29.60115 10894 ft 207 kts 147°
2026-04-28 08:27 -27.42242 29.61213 10684 ft 201 kts 147°
2026-04-28 08:28 -27.43558 29.62577 10449 ft 188 kts 148°
2026-04-28 08:28 -27.44507 29.63559 10265 ft 183 kts 148°
2026-04-28 08:28 -27.45439 29.64521 10087 ft 181 kts 149°
2026-04-28 08:28 -27.46046 29.65151 9974 ft 178 kts 149°
2026-04-28 08:29 -27.46959 29.66083 9780 ft 176 kts 148°
2026-04-28 08:29 -27.47853 29.67019 9592 ft 175 kts 148°
2026-04-28 08:29 -27.48743 29.67947 9414 ft 174 kts 147°
2026-04-28 08:29 -27.49638 29.68868 9242 ft 173 kts 147°
2026-04-28 08:30 -27.50531 29.69793 9070 ft 176 kts 145°
2026-04-28 08:30 -27.51426 29.70741 8901 ft 177 kts 145°
2026-04-28 08:30 -27.52328 29.71679 8718 ft 176 kts 145°
2026-04-28 08:30 -27.53220 29.72602 8548 ft 175 kts 145°
2026-04-28 08:31 -27.54103 29.73523 8374 ft 172 kts 144°
2026-04-28 08:31 -27.54705 29.74733 8200 ft 186 kts 106°
2026-04-28 08:31 -27.55027 29.76157 8030 ft 187 kts 114°
2026-04-28 08:31 -27.55710 29.77368 7867 ft 182 kts 136°
2026-04-28 08:32 -27.56548 29.78442 7704 ft 185 kts 135°
2026-04-28 08:32 -27.57370 29.79563 7534 ft 185 kts 136°
2026-04-28 08:32 -27.58189 29.80687 7374 ft 186 kts 136°
2026-04-28 08:32 -27.58995 29.81844 7216 ft 187 kts 130°
2026-04-28 08:33 -27.59769 29.83022 7044 ft 186 kts 129°
2026-04-28 08:33 -27.60557 29.84155 6880 ft 181 kts 130°
2026-04-28 08:33 -27.61334 29.85248 6713 ft 180 kts 130°
2026-04-28 08:33 -27.62117 29.86339 6544 ft 179 kts 130°
2026-04-28 08:34 -27.62966 29.87352 6355 ft 177 kts 148°
2026-04-28 08:34 -27.64123 29.87672 6180 ft 170 kts 193°
2026-04-28 08:34 -27.65121 29.87118 6177 ft 156 kts 218°
2026-04-28 08:34 -27.66005 29.86422 6176 ft 154 kts 219°
2026-04-28 08:35 -27.67016 29.86073 6134 ft 160 kts 174°
2026-04-28 08:35 -27.68112 29.86376 6007 ft 166 kts 161°
2026-04-28 08:35 -27.69171 29.86875 5973 ft 164 kts 155°
2026-04-28 08:35 -27.70196 29.87312 6073 ft 153 kts 162°
2026-04-28 08:36 -27.71210 29.87808 5895 ft 165 kts 153°
2026-04-28 08:36 -27.72171 29.88544 5788 ft 170 kts 125°
2026-04-28 08:36 -27.72773 29.89738 5473 ft 181 kts 110°
2026-04-28 08:36 -27.73250 29.91025 5440 ft 169 kts 113°
2026-04-28 08:37 -27.73713 29.92237 5397 ft 167 kts 121°
2026-04-28 08:37 -27.74443 29.93205 5405 ft 161 kts 137°
2026-04-28 08:37 -27.75374 29.93898 5324 ft 160 kts 158°
2026-04-28 08:37 -27.76392 29.94340 5383 ft 151 kts 169°
2026-04-28 08:38 -27.77402 29.94311 5416 ft 143 kts 204°
2026-04-28 08:38 -27.78110 29.93645 5517 ft 130 kts 245°
2026-04-28 08:38 -27.78164 29.92693 5550 ft 126 kts 289°
2026-04-28 08:38 -27.77464 29.92012 5548 ft 149 kts 343°
2026-04-28 08:39 -27.76513 29.92406 5570 ft 158 kts 50°
2026-04-28 08:39 -27.76538 29.93617 5180 ft 163 kts 120°
2026-04-28 08:39 -27.76890 29.94648 4803 ft 127 kts 89°
2026-04-28 08:39 -27.77005 29.95520 4504 ft 104 kts 95°
2026-04-28 08:40 -27.77031 29.96292 4227 ft 96 kts 90°
2026-04-28 08:40 -27.77047 29.97021 4081 ft 86 kts 87°
2026-04-28 08:40 -27.77054 29.97601 4078 ft 57 kts 90°
2026-04-28 08:40 -27.77057 29.97909 4077 ft 26 kts 89°
2026-04-28 08:41 -27.77058 29.98036 4077 ft 7 kts 280°
2026-04-28 08:41 -27.77057 29.97953 4076 ft 15 kts 274°
2026-04-28 08:41 -27.77056 29.97934 4077 ft 17 kts 273°
2026-04-28 08:41 -27.77056 29.97933 4077 ft 17 kts 273°
2026-04-28 08:42 -27.77056 29.97764 4078 ft 26 kts 270°
2026-04-28 08:42 -27.77045 29.97607 4081 ft 14 kts 323°
2026-04-28 08:42 -27.76918 29.97603 4077 ft 14 kts
2026-04-28 08:42 -27.76877 29.97563 4078 ft 10 kts 271°
2026-04-28 08:43 -27.76836 29.97512 4077 ft 8 kts 291°
2026-04-28 08:43 -27.76839 29.97500 4077 ft 1 kts 153°
2026-04-28 08:43 -27.76840 29.97507 4077 ft 0 kts 91°